Location: Mentone
(34.5413°N, 85.5351°W)
Time: 20:24:17
(UTC-05:00)

A-11 Canister half - Visible Passes

Search period start: 03 August 2015 00:00
Search period end: 13 August 2015 00:00
Orbit: 1526 x 1684 km, 47.3° (Epoch: 03 August)

Date Brightness Start Highest point End Pass type
(mag) Time Alt. Az. Time Alt. Az. Time Alt. Az.
03 Aug 10.7 03:06:33 14° SSE 03:11:02 20° SE 03:17:56 10° E visible
03 Aug 9.4 05:05:12 10° SW 05:15:17 73° SE 05:25:23 10° ENE visible
04 Aug 10.6 02:46:26 15° SSE 02:49:31 18° SE 02:56:01 10° E visible
04 Aug 9.3 04:44:46 14° SW 04:53:42 70° SE 05:03:46 10° ENE visible
05 Aug 10.7 02:26:16 16° SE 02:27:58 17° SE 02:34:03 10° E visible
05 Aug 9.3 04:24:35 20° SW 04:32:08 67° SE 04:42:10 10° ENE visible
06 Aug 10.7 02:06:03 15° SE 02:06:26 15° SE 02:12:02 10° E visible
06 Aug 9.3 04:04:22 26° SSW 04:10:33 64° SE 04:20:33 10° ENE visible
07 Aug 10.8 01:45:47 14° ESE 01:45:47 14° ESE 01:49:54 10° E visible
07 Aug 9.3 03:44:06 33° SSW 03:48:58 61° SE 03:58:55 10° ENE visible
08 Aug 10.9 01:25:29 12° ESE 01:25:29 12° ESE 01:27:39 10° E visible
08 Aug 9.4 03:23:47 40° S 03:27:24 58° SE 03:37:18 10° ENE visible
08 Aug 9.5 05:22:46 10° WSW 05:32:46 58° NNW 05:42:44 10° NE visible
09 Aug 11.0 01:05:08 10° ESE 01:05:08 10° ESE 01:05:09 10° ESE visible
09 Aug 9.3 03:03:27 46° S 03:05:50 55° SE 03:15:40 10° ENE visible
09 Aug 9.5 05:01:45 12° WSW 05:11:08 60° NNW 05:21:08 10° NE visible
10 Aug 9.3 02:43:03 50° SSE 02:44:16 52° SE 02:54:02 10° ENE visible
10 Aug 9.4 04:41:21 17° WSW 04:49:29 62° NNW 04:59:32 10° NE visible
11 Aug 9.4 02:22:37 49° SE 02:22:44 49° SE 02:32:23 10° ENE visible
11 Aug 9.4 04:20:55 23° WSW 04:27:50 64° NNW 04:37:56 10° NE visible
12 Aug 9.6 02:02:09 46° ESE 02:02:09 46° ESE 02:10:44 10° ENE visible
12 Aug 9.3 04:00:26 30° WSW 04:06:13 67° NNW 04:16:20 10° NE visible
